FW8685 Weather Reports


time (UTC)temp
C
wind
direction
speed
KPH
gust
KPH
rain 1hr
cm
rain 24hr
cm
rain mn
cm
humidity
%
barometer
mb
20260503195021 30 258 16.1 32.2 0.00 0.00 0.00 20 1008.7
20260503194539 30 231 17.7 32.2 0.00 0.00 0.00 20 1008.9
20260503194023 29 198 16.1 40.2 0.00 0.00 0.00 20 1009.0
20260503193522 29 188 22.5 40.2 0.00 0.00 0.00 19 1008.9
20260503193039 30 225 17.7 38.6 0.00 0.00 0.00 21 1009.0
20260503192522 29 288 12.9 41.8 0.00 0.00 0.00 23 1009.1
20260503192021 29 234 24.1 41.8 0.00 0.00 0.00 20 1009.2
20260503191538 29 225 20.9 41.8 0.00 0.00 0.00 21 1009.2
20260503191022 29 250 20.9 37.0 0.00 0.00 0.00 21 1009.3
20260503190523 29 310 17.7 40.2 0.00 0.00 0.00 24 1009.4
20260503190046 28 206 20.9 43.5 0.00 0.00 0.00 22 1009.5
20260503185521 28 204 22.5 43.5 0.00 0.00 0.00 22 1009.6
20260503185021 28 238 16.1 37.0 0.00 0.00 0.00 23 1009.7
20260503184539 28 268 19.3 40.2 0.00 0.00 0.00 24 1009.6
20260503184023 28 269 20.9 40.2 0.00 0.00 0.00 26 1009.7
20260503183521 28 289 19.3 37.0 0.00 0.00 0.00 26 1009.9
20260503183054 28 270 19.3 37.0 0.00 0.00 0.00 27 1009.9
20260503182521 28 269 20.9 37.0 0.00 0.00 0.00 27 1010.0
20260503182022 28 227 17.7 35.4 0.00 0.00 0.00 32 1010.1
20260503181539 27 266 17.7 35.4 0.00 0.00 0.00 30 1010.2
20260503181022 27 242 17.7 35.4 0.00 0.00 0.00 30 1010.4
20260503180522 27 243 17.7 32.2 0.00 0.00 0.00 30 1010.6
20260503180049 27 214 14.5 29.0 0.00 0.00 0.00 33 1010.7
20260503175521 27 229 12.9 30.6 0.00 0.00 0.00 34 1010.8
20260503175022 26 259 16.1 32.2 0.00 0.00 0.00 32 1010.9
20260503174538 26 238 17.7 35.4 0.00 0.00 0.00 35 1011.0
20260503174022 26 250 19.3 35.4 0.00 0.00 0.00 33 1011.1
20260503173522 26 227 16.1 27.4 0.00 0.00 0.00 35 1011.2
20260503173051 26 244 12.9 24.1 0.00 0.00 0.00 35 1011.2
20260503172521 26 327 12.9 25.7 0.00 0.00 0.00 34 1011.3
20260503172020 26 220 12.9 25.7 0.00 0.00 0.00 40 1011.3
20260503171543 25 241 14.5 32.2 0.00 0.00 0.00 36 1011.3
20260503171022 25 256 12.9 32.2 0.00 0.00 0.00 36 1011.4
20260503170521 25 229 16.1 27.4 0.00 0.00 0.00 36 1011.4
20260503150522 20 242 11.3 27.4 0.00 0.00 0.00 54 1012.7
20260503131023 10 197 9.7 17.7 0.00 0.00 0.00 82 1013.0
20260503130522 9 189 9.7 17.7 0.00 0.00 0.00 84 1013.0
20260503110523 6 186 6.4 9.7 0.00 0.00 0.00 81 1013.3
20260503081545 6 187 8.0 16.1 0.00 0.00 0.00 79 1014.5
20260503081022 6 161 9.7 16.1 0.00 0.00 0.00 79 1014.5
20260503080525 6 195 9.7 17.7 0.00 0.00 0.00 79 1014.7
20260503072523 6 194 6.4 9.7 0.00 0.00 0.00 76 1015.0
20260503072024 6 176 4.8 9.7 0.00 0.00 0.00 75 1014.9
20260503071546 6 180 4.8 8.0 0.00 0.00 0.00 75 1015.0
20260503071022 6 186 4.8 8.0 0.00 0.00 0.00 74 1015.0
20260503070522 6 164 4.8 8.0 0.00 0.00 0.00 74 1015.1
20260503055022 8 165 6.4 8.0 0.00 0.05 0.00 69 1015.6
20260503054541 8 156 3.2 6.4 0.00 0.05 0.00 69 1015.6
20260503054022 8 140 4.8 6.4 0.00 0.05 0.00 68 1015.7
20260503053523 8 140 3.2 4.8 0.00 0.05 0.00 67 1015.8
20260503053037 8 140 3.2 4.8 0.00 0.05 0.00 66 1015.8
20260503052524 8 140 3.2 4.8 0.00 0.05 0.00 67 1015.8
20260503052022 8 140 3.2 6.4 0.00 0.05 0.00 67 1015.8
20260503051550 8 136 1.6 6.4 0.00 0.05 0.00 67 1015.8
20260503051025 8 134 4.8 6.4 0.00 0.05 0.00 67 1015.8
20260503050526 8 128 4.8 8.0 0.00 0.05 0.00 67 1015.8
20260503050041 8 144 3.2 8.0 0.00 0.05 0.00 67 1015.9
20260503045527 8 150 3.2 8.0 0.00 0.10 0.05 67 1015.9
20260503045025 8 147 3.2 6.4 0.00 0.10 0.05 66 1015.9
20260503044538 8 159 3.2 6.4 0.00 0.10 0.05 65 1015.8
20260503044024 8 154 3.2 4.8 0.00 0.10 0.05 65 1015.9
20260503043524 8 148 3.2 6.4 0.00 0.10 0.05 65 1015.9
20260503043037 8 147 3.2 8.0 0.00 0.10 0.05 64 1015.9
20260503042525 9 163 4.8 8.0 0.00 0.10 0.05 64 1015.8
20260503042027 9 157 3.2 8.0 0.00 0.10 0.05 63 1015.8
20260503041537 9 146 4.8 8.0 0.00 0.10 0.05 63 1015.8
20260503041024 9 167 6.4 8.0 0.00 0.10 0.05 61 1015.8
20260503040529 10 165 3.2 8.0 0.00 0.10 0.05 60 1015.8
20260503040037 10 147 3.2 8.0 0.00 0.10 0.05 60 1015.7
20260503035524 10 159 3.2 8.0 0.00 0.10 0.05 60 1015.8
20260503035025 10 151 3.2 8.0 0.00 0.10 0.05 59 1015.8
20260503034540 10 144 3.2 6.4 0.00 0.10 0.05 59 1015.9
20260503034024 10 144 3.2 4.8 0.00 0.10 0.05 57 1015.9
20260503033525 10 144 3.2 4.8 0.00 0.10 0.05 56 1015.9
20260503033044 11 144 3.2 4.8 0.00 0.10 0.05 54 1015.9
20260503032525 11 144 3.2 4.8 0.00 0.10 0.05 55 1015.8
20260503032025 11 144 3.2 4.8 0.00 0.10 0.05 55 1015.9
20260503031538 11 144 3.2 4.8 0.00 0.10 0.05 54 1015.8
20260503031024 11 144 3.2 4.8 0.00 0.10 0.05 54 1015.8
20260503030526 11 144 3.2 4.8 0.00 0.10 0.05 53 1015.9
20260503030038 11 144 3.2 6.4 0.00 0.10 0.05 53 1015.7
20260503025524 12 144 3.2 6.4 0.00 0.10 0.05 53 1015.7
20260503025024 12 144 3.2 6.4 0.00 0.10 0.05 53 1015.7
20260503024539 12 144 3.2 6.4 0.00 0.10 0.05 52 1015.6
20260503024024 12 144 3.2 6.4 0.00 0.10 0.05 52 1015.6
20260503023525 12 144 4.8 6.4 0.00 0.10 0.05 50 1015.7
20260503023037 12 144 4.8 6.4 0.00 0.10 0.05 48 1015.7
20260503022520 13 144 4.8 6.4 0.00 0.10 0.05 48 1015.8
20260503022023 13 144 4.8 6.4 0.00 0.10 0.05 47 1015.7
20260503021538 13 144 3.2 4.8 0.00 0.10 0.05 47 1015.6
20260503021020 13 144 3.2 6.4 0.00 0.10 0.05 46 1015.6
20260503020523 13 144 3.2 6.4 0.00 0.10 0.05 46 1015.6
20260503020047 14 144 3.2 8.0 0.00 0.10 0.05 46 1015.6
20260503015520 14 144 4.8 8.0 0.00 0.10 0.05 46 1015.6
20260503015020 15 144 4.8 8.0 0.00 0.10 0.05 46 1015.6
20260503014606 15 144 4.8 6.4 0.00 0.10 0.05 45 1015.5
20260503014022 15 144 4.8 6.4 0.00 0.10 0.05 44 1015.6
20260503013521 15 144 4.8 6.4 0.00 0.10 0.05 44 1015.6
20260503013040 15 144 4.8 6.4 0.00 0.10 0.05 43 1015.6
20260503012521 16 144 4.8 6.4 0.00 0.10 0.05 43 1015.6
20260503012021 17 144 4.8 6.4 0.00 0.10 0.05 41 1015.5
20260503011546 17 209 3.2 4.8 0.00 0.10 0.05 39 1015.6
20260503011021 17 209 1.6 4.8 0.00 0.10 0.05 41 1015.6
20260503010520 17 209 1.6 4.8 0.00 0.10 0.05 40 1015.6
20260503010048 17 209 1.6 4.8 0.00 0.10 0.05 39 1015.5
20260503005520 18 209 1.6 4.8 0.00 0.10 0.05 36 1015.6
20260503005022 18 0 0.0 3.2 0.00 0.10 0.05 34 1015.7
20260503004606 18 0 0.0 3.2 0.00 0.10 0.05 34 1015.6
20260503004022 19 0 0.0 3.2 0.00 0.10 0.05 32 1015.7
20260503003526 19 211 0.0 4.8 0.00 0.10 0.05 32 1015.8
20260503003032 20 0 0.0 4.8 0.00 0.10 0.05 31 1015.6
20260503002523 20 224 1.6 6.4 0.00 0.10 0.05 28 1015.7
20260503002023 20 0 1.6 6.4 0.00 0.10 0.05 29 1015.8
20260503001539 20 252 3.2 8.0 0.00 0.10 0.05 26 1015.8
20260503001024 20 0 3.2 11.3 0.00 0.10 0.05 28 1015.8
20260503000526 20 256 4.8 12.9 0.00 0.10 0.05 28 1015.9
20260503000041 20 259 6.4 12.9 0.00 0.10 0.05 26 1016.0
20260502235523 20 240 4.8 12.9 0.00 0.10 0.05 28 1016.0
20260502235022 20 0 3.2 14.5 0.00 0.10 0.05 25 1016.0
20260502234543 20 265 6.4 14.5 0.00 0.10 0.05 26 1016.0
20260502234021 20 281 6.4 12.9 0.00 0.10 0.05 26 1016.0
20260502233524 20 259 6.4 12.9 0.00 0.10 0.05 27 1016.1
20260502233041 20 241 3.2 14.5 0.00 0.10 0.05 27 1016.0
20260502232522 20 313 1.6 14.5 0.00 0.10 0.05 26 1016.0
20260502232019 20 260 8.0 14.5 0.00 0.10 0.05 26 1016.1
20260502231538 20 333 4.8 17.7 0.00 0.10 0.05 28 1016.1
20260502231022 20 315 4.8 19.3 0.00 0.10 0.05 26 1016.1
20260502230524 20 302 11.3 19.3 0.00 0.10 0.05 28 1016.1
20260502230040 20 251 4.8 12.9 0.00 0.10 0.05 26 1016.1
20260502225522 20 283 3.2 12.9 0.00 0.10 0.05 27 1016.2
20260502225020 20 261 6.4 12.9 0.00 0.10 0.05 28 1016.1
20260502224538 20 360 3.2 11.3 0.00 0.10 0.05 27 1016.2
20260502224022 20 253 4.8 16.1 0.00 0.10 0.05 27 1016.1
20260502223523 20 0 3.2 16.1 0.00 0.10 0.05 30 1016.3
20260502223041 20 298 9.7 16.1 0.00 0.10 0.05 28 1016.3
20260502222523 20 336 6.4 12.9 0.00 0.10 0.05 28 1016.3
20260502222023 20 211 4.8 11.3 0.00 0.10 0.05 30 1016.3
20260502221537 20 292 4.8 14.5 0.00 0.10 0.05 30 1016.4
20260502221022 20 53 3.2 14.5 0.00 0.10 0.05 31 1016.4
20260502220522 20 5 3.2 11.3 0.00 0.10 0.05 31 1016.5
20260502220039 20 132 4.8 11.3 0.00 0.10 0.05 31 1016.4
20260502215522 20 128 1.6 12.9 0.00 0.10 0.05 32 1016.6
20260502215021 20 0 1.6 14.5 0.00 0.10 0.05 32 1016.7
20260502214540 20 294 6.4 14.5 0.00 0.10 0.05 30 1016.7
20260502214023 20 232 4.8 12.9 0.00 0.10 0.05 33 1016.7
20260502213522 20 225 4.8 14.5 0.00 0.10 0.05 30 1016.8
20260502213039 20 90 0.0 14.5 0.00 0.10 0.05 31 1016.9
20260502212524 20 28 6.4 14.5 0.00 0.10 0.05 34 1017.0
20260502212023 20 333 3.2 17.7 0.00 0.10 0.05 34 1017.1
20260502211543 20 281 6.4 20.9 0.00 0.10 0.05 29 1017.1
20260502211023 20 337 9.7 20.9 0.00 0.10 0.05 29 1017.2
20260502210522 20 275 9.7 20.9 0.00 0.10 0.05 29 1017.3
20260502210040 20 0 6.4 19.3 0.00 0.10 0.05 31 1017.4
20260502205523 20 343 3.2 20.9 0.00 0.10 0.05 31 1017.6
20260502205025 20 13 9.7 20.9 0.00 0.10 0.05 34 1017.6
20260502204540 20 360 8.0 17.7 0.00 0.10 0.05 31 1017.6
20260502204022 20 5 3.2 17.7 0.00 0.10 0.05 30 1017.6
20260502203522 20 22 9.7 22.5 0.00 0.10 0.05 35 1017.7
20260502203039 20 287 11.3 22.5 0.00 0.10 0.05 31 1017.7
20260502202522 19 52 8.0 22.5 0.00 0.10 0.05 34 1017.7
20260502202022 19 47 4.8 22.5 0.00 0.10 0.05 32 1017.8
20260502201538 20 306 9.7 19.3 0.00 0.10 0.05 33 1017.8
20260502201023 20 275 6.4 17.7 0.00 0.10 0.05 33 1017.8
20260502200523 19 306 1.6 20.9 0.00 0.10 0.05 33 1017.8
20260502200036 20 314 6.4 22.5 0.00 0.10 0.05 31 1017.8
20260502195523 20 333 11.3 22.5 0.00 0.10 0.05 35 1017.8